STARLINK-11480, 62830

Orbit data source: Space-Track

STARLINK-11480, 62830 is a payload satellite owned by SpaceX/Seattle (US) in LEO that was launched on Mon, 27 Jan 2025 UTC via an FALCON 9 launch vehicle from the Air Force Eastern Test Range (AFETR). Payload-class satellites include a variety of spacecraft equipped with specific instruments for various scientific and technological missions. These include communications satellites like Starlink; space stations such as the ISS; scientific satellites like the Hubble; Earth observation satellites from companies like Planet Labs, Umbra, and HawkEye 360; GPS; miniature CubeSats for education and research; and military/defense satellites.

Loading next visibility...
Identifier
62830, 2025-019B
Orbit
LEO
Country
Flag of USUS
Related business
Manufacturer
SpaceX/Seattle
Mission
Operational Commercial Communications
Bus & Motor
STARLINK V2MD, Unknown motor
Mass
960 kg wet, ~910 kg dry
Launch date (UTC)
2025-01-27 (1 year ago)
Launch vehicle
FALCON 9
Launch site
Air Force Eastern Test Range (AFETR)
Object type
Payload
Rocket body
Debris
Shape & HBR
Box + 2 Pan, 18.1 m
Radar Cross Section
36.964 m², Large (>1 m²)

Expand to show TLE details & history
Last TLE update: 17 hours ago

TLE from 17 hours ago
0 STARLINK-11480
1 62830U 25019B   26126.56935667  .00152239  00000-0  11663-2 0  9991
2 62830  42.9984 317.1101 0001366 243.8531 116.2196 15.70881797 72988
Epoch: 2026-05-06T13:39Z
TLE epoch observation values (Epoch: 2026-05-06T13:39:52.416Z)
Latitude
-0.00002°
Longitude
-112.28629°
Altitude
356.553 km
Speed
7.697 km/s
True Right ascension
21h 08m 26s
True Declination
0° 00' 00"
Sunlit
Object was in daylight at epoch
Visualization orbit readout
Latitude
Unknown
Longitude
Unknown
Altitude
Unknown
Speed
Unknown
Apparent Right ascension
Unknown
Apparent Declination
Unknown
Sunlit
N/A
Visualization observer readout
Local Sidereal Time
14:42:17
Azimuth
Unknown
Elevation
Unknown
Doppler factor
Unknown
Orbital elements
Apogee altitude
359.278 km
Perigee altitude
357.437 km
Semi-major axis
6,736.494 km
Eccentricity
0.00014
Inclination
42.9984°
RAAN
317.1101°
Arg. of periapsis
243.8531°
True anomaly
116.23364°
Mean anomaly
116.2196°
Eccentric anomaly
116.22662°
Mean motion
3.92548 °/min
Orbital period
91.71 mins
BSTAR
0.0011663
Loading maneuver chart data...
Computing Atmospheric mass density...
Loading historical data...
Loading historical data...
Loading historical data...
Loading historical data...
Loading historical data...
Loading historical data...
Loading historical data...

Documentation

Showing up to 5 results
|